Location: Schommer Observatory
(40.5200°N, 74.4500°W)
Time: 10:16:19
(UTC-05:00)

Envisat - Pass Details

Date: 20 November 2018
Orbit: 764 x 766 km, 98.2° (Epoch: 11 December)

Event Time Altitude Azimuth Distance (km) Brightness Sun altitude
Exits shadow 17:29:04 10° 97° (E) 2,307 4.9 -10.1°
Reaches altitude 10° 17:29:05 10° 97° (E) 2,303 4.9 -10.1°
Maximum altitude 17:31:59 16° 62° (ENE) 1,950 4.5 -10.6°
Drops below altitude 10° 17:34:53 10° 27° (NNE) 2,310 5.1 -11.2°
Sets 17:38:05 0° 6° (N) 3,241 6.0 -11.7°
